• In Kazakhstan
  • List of Countries
  • For 7 days
  • Water Temperature
  • Weather Map
  • News
  • Weather Widgets
  • user-avatar
    Login

    Hourly Weather Calcutta

    Today, 4 June, Thursday

    Time Temperature Precipitation Wind Pressure Humidity
    00:00 +33°C° 0 mm 3 mps 753 mmHg 72%
    01:00 +33°C° 0 mm 3 mps 753 mmHg 73%
    02:00 +31°C° 0 mm 3 mps 752 mmHg 74%
    03:00 +31°C° 0 mm 3 mps 752 mmHg 75%
    04:00 +31°C° 0.2 mm 3 mps 752 mmHg 75%
    05:00 +31°C° 0.2 mm 3 mps 752 mmHg 75%
    06:00 +31°C° 0 mm 2 mps 752 mmHg 73%
    07:00 +34°C° 0 mm 3 mps 753 mmHg 66%
    08:00 +35°C° 0 mm 4 mps 753 mmHg 59%
    09:00 +37°C° 0 mm 4 mps 753 mmHg 51%
    10:00 +38°C° 0 mm 4 mps 753 mmHg 48%
    11:00 +40°C° 0 mm 5 mps 753 mmHg 44%
    12:00 +41°C° 0 mm 5 mps 753 mmHg 42%
    13:00 +41°C° 0 mm 5 mps 752 mmHg 42%
    14:00 +41°C° 0 mm 5 mps 751 mmHg 41%
    15:00 +41°C° 0 mm 5 mps 751 mmHg 41%
    16:00 +40°C° 0 mm 5 mps 751 mmHg 45%
    17:00 +39°C° 0 mm 5 mps 751 mmHg 48%
    18:00 +37°C° 0 mm 4 mps 751 mmHg 53%
    19:00 +36°C° 0 mm 4 mps 752 mmHg 57%
    20:00 +35°C° 0 mm 5 mps 752 mmHg 61%
    21:00 +34°C° 0 mm 5 mps 753 mmHg 65%
    22:00 +34°C° 0 mm 5 mps 753 mmHg 68%
    23:00 +33°C° 0 mm 5 mps 753 mmHg 71%

    Tomorrow, 5 June, Friday

    Time Temperature Precipitation Wind Pressure Humidity
    00:00 +33°C° 0 mm 5 mps 753 mmHg 73%
    01:00 +33°C° 0 mm 5 mps 752 mmHg 74%
    02:00 +33°C° 0 mm 5 mps 752 mmHg 75%
    03:00 +32°C° 0 mm 4 mps 751 mmHg 76%
    04:00 +32°C° 0 mm 4 mps 752 mmHg 76%
    05:00 +32°C° 0 mm 4 mps 752 mmHg 76%
    06:00 +32°C° 0 mm 4 mps 752 mmHg 76%
    07:00 +34°C° 0 mm 5 mps 752 mmHg 69%
    08:00 +35°C° 0 mm 5 mps 752 mmHg 62%
    09:00 +38°C° 0 mm 6 mps 752 mmHg 55%
    10:00 +39°C° 0 mm 6 mps 752 mmHg 50%
    11:00 +40°C° 0 mm 6 mps 752 mmHg 45%
    12:00 +42°C° 0 mm 6 mps 752 mmHg 40%
    13:00 +41°C° 0 mm 6 mps 751 mmHg 41%
    14:00 +41°C° 0 mm 6 mps 750 mmHg 43%
    15:00 +40°C° 0 mm 6 mps 750 mmHg 44%
    16:00 +40°C° 0 mm 7 mps 750 mmHg 46%
    17:00 +39°C° 0 mm 7 mps 750 mmHg 49%
    18:00 +38°C° 0 mm 7 mps 750 mmHg 51%
    19:00 +36°C° 0 mm 6 mps 750 mmHg 54%
    20:00 +36°C° 0 mm 6 mps 750 mmHg 58%
    21:00 +35°C° 0 mm 5 mps 751 mmHg 61%
    22:00 +34°C° 0 mm 6 mps 751 mmHg 62%
    23:00 +34°C° 0 mm 6 mps 751 mmHg 63%

    Day after tomorrow, 6 June, Saturday

    Time Temperature Precipitation Wind Pressure Humidity
    00:00 +34°C° 0 mm 6 mps 751 mmHg 64%
    01:00 +34°C° 0 mm 6 mps 751 mmHg 65%
    02:00 +34°C° 0 mm 5 mps 750 mmHg 66%
    03:00 +33°C° 0 mm 5 mps 750 mmHg 66%
    04:00 +33°C° 0 mm 5 mps 750 mmHg 68%
    05:00 +33°C° 0 mm 4 mps 750 mmHg 69%
    06:00 +33°C° 0 mm 3 mps 750 mmHg 71%
    07:00 +34°C° 0 mm 3 mps 750 mmHg 62%
    08:00 +36°C° 0 mm 3 mps 751 mmHg 54%
    09:00 +38°C° 0 mm 3 mps 751 mmHg 46%
    10:00 +40°C° 0 mm 4 mps 751 mmHg 41%
    11:00 +42°C° 0 mm 4 mps 750 mmHg 36%
    12:00 +43°C° 0 mm 4 mps 750 mmHg 31%
    13:00 +43°C° 0 mm 4 mps 749 mmHg 31%
    14:00 +43°C° 0 mm 4 mps 749 mmHg 30%
    15:00 +45°C° 0 mm 5 mps 748 mmHg 29%
    16:00 +43°C° 0 mm 4 mps 748 mmHg 30%
    17:00 +42°C° 0 mm 3 mps 748 mmHg 32%
    18:00 +42°C° 0 mm 3 mps 748 mmHg 33%
    19:00 +39°C° 0 mm 3 mps 749 mmHg 39%
    20:00 +38°C° 0 mm 4 mps 749 mmHg 45%
    21:00 +36°C° 0 mm 4 mps 750 mmHg 50%
    22:00 +36°C° 0 mm 4 mps 750 mmHg 52%
    23:00 +35°C° 0 mm 4 mps 750 mmHg 54%

    7 June, Sunday

    Time Temperature Precipitation Wind Pressure Humidity
    00:00 +35°C° 0 mm 3 mps 750 mmHg 56%
    01:00 +34°C° 0 mm 3 mps 750 mmHg 58%
    02:00 +34°C° 0 mm 3 mps 750 mmHg 59%
    03:00 +34°C° 0 mm 3 mps 750 mmHg 61%
    04:00 +34°C° 0 mm 2 mps 750 mmHg 63%
    05:00 +32°C° 0 mm 2 mps 750 mmHg 64%
    06:00 +32°C° 0 mm 2 mps 750 mmHg 66%
    07:00 +35°C° 0 mm 2 mps 750 mmHg 59%
    08:00 +36°C° 0 mm 1 mps 750 mmHg 52%
    09:00 +37°C° 0 mm 1 mps 751 mmHg 44%
    10:00 +40°C° 0 mm 2 mps 750 mmHg 39%
    11:00 +41°C° 0 mm 2 mps 750 mmHg 33%
    12:00 +44°C° 0 mm 3 mps 750 mmHg 28%
    13:00 +44°C° 0 mm 3 mps 749 mmHg 28%
    14:00 +44°C° 0 mm 3 mps 748 mmHg 28%
    15:00 +43°C° 0 mm 3 mps 748 mmHg 28%
    16:00 +43°C° 0 mm 3 mps 748 mmHg 32%
    17:00 +42°C° 0 mm 3 mps 747 mmHg 37%
    18:00 +41°C° 0 mm 4 mps 747 mmHg 41%
    19:00 +38°C° 0 mm 4 mps 748 mmHg 48%
    20:00 +37°C° 0 mm 5 mps 749 mmHg 54%
    21:00 +36°C° 0 mm 5 mps 749 mmHg 61%
    22:00 +35°C° 0 mm 4 mps 749 mmHg 63%
    23:00 +35°C° 0 mm 3 mps 749 mmHg 66%

    8 June, Monday

    Time Temperature Precipitation Wind Pressure Humidity
    00:00 +34°C° 0 mm 2 mps 749 mmHg 68%
    01:00 +34°C° 0.2 mm 2 mps 749 mmHg 70%
    02:00 +34°C° 0.2 mm 2 mps 749 mmHg 72%
    03:00 +32°C° 0.2 mm 2 mps 749 mmHg 74%
    04:00 +32°C° 0.1 mm 2 mps 749 mmHg 75%
    05:00 +33°C° 0.1 mm 3 mps 749 mmHg 76%
    06:00 +33°C° 0.1 mm 3 mps 749 mmHg 77%
    07:00 +35°C° 0 mm 3 mps 749 mmHg 66%
    08:00 +38°C° 0 mm 4 mps 750 mmHg 54%
    09:00 +41°C° 0 mm 4 mps 750 mmHg 43%
    10:00 +42°C° 0 mm 4 mps 749 mmHg 38%
    11:00 +43°C° 0 mm 3 mps 749 mmHg 33%
    12:00 +45°C° 0 mm 2 mps 749 mmHg 28%
    13:00 +44°C° 0 mm 3 mps 748 mmHg 30%
    14:00 +43°C° 0 mm 4 mps 748 mmHg 32%
    15:00 +42°C° 0 mm 4 mps 747 mmHg 35%
    16:00 +41°C° 0 mm 5 mps 747 mmHg 38%
    17:00 +40°C° 0 mm 5 mps 747 mmHg 41%
    18:00 +40°C° 0 mm 5 mps 747 mmHg 44%
    19:00 +39°C° 0 mm 5 mps 748 mmHg 49%
    20:00 +36°C° 0 mm 6 mps 748 mmHg 55%
    21:00 +35°C° 0 mm 6 mps 749 mmHg 60%
    22:00 +35°C° 0 mm 5 mps 749 mmHg 62%
    23:00 +35°C° 0 mm 5 mps 749 mmHg 64%

    9 June, Tuesday

    Time Temperature Precipitation Wind Pressure Humidity
    00:00 +34°C° 0 mm 4 mps 749 mmHg 66%
    01:00 +34°C° 0 mm 4 mps 749 mmHg 68%
    02:00 +33°C° 0 mm 4 mps 749 mmHg 70%
    03:00 +33°C° 0 mm 3 mps 748 mmHg 72%
    04:00 +33°C° 0 mm 3 mps 749 mmHg 74%
    05:00 +33°C° 0 mm 4 mps 749 mmHg 76%
    06:00 +33°C° 0 mm 4 mps 749 mmHg 78%
    07:00 +35°C° 0 mm 4 mps 749 mmHg 68%
    08:00 +37°C° 0 mm 4 mps 750 mmHg 58%
    09:00 +40°C° 0 mm 5 mps 750 mmHg 47%
    10:00 +41°C° 0 mm 5 mps 750 mmHg 43%
    11:00 +42°C° 0 mm 5 mps 750 mmHg 38%
    12:00 +45°C° 0 mm 5 mps 749 mmHg 33%
    13:00 +45°C° 0 mm 5 mps 749 mmHg 34%
    14:00 +43°C° 0 mm 4 mps 748 mmHg 34%
    15:00 +43°C° 0 mm 4 mps 747 mmHg 34%
    16:00 +42°C° 0 mm 5 mps 747 mmHg 38%
    17:00 +41°C° 0 mm 6 mps 747 mmHg 42%
    18:00 +39°C° 0 mm 6 mps 747 mmHg 47%
    19:00 +38°C° 0 mm 6 mps 748 mmHg 53%
    20:00 +36°C° 0 mm 6 mps 749 mmHg 58%
    21:00 +34°C° 0 mm 6 mps 749 mmHg 64%
    22:00 +34°C° 0 mm 6 mps 749 mmHg 66%
    23:00 +34°C° 0 mm 5 mps 750 mmHg 67%
    Show more